STARLINK-32559, 61915

Orbit data source: Space-Track

STARLINK-32559, 61915 is a payload satellite owned by SpaceX/Seattle (US) in LEO that was launched on Mon, 11 Nov 2024 UTC via an FALCON 9 launch vehicle from the Air Force Eastern Test Range (AFETR). Payload-class satellites include a variety of spacecraft equipped with specific instruments for various scientific and technological missions. These include communications satellites like Starlink; space stations such as the ISS; scientific satellites like the Hubble; Earth observation satellites from companies like Planet Labs, Umbra, and HawkEye 360; GPS; miniature CubeSats for education and research; and military/defense satellites.

Loading next visibility...
Identifier
61915, 2024-207D
Orbit
LEO
Country
Flag of USUS
Related business
Manufacturer
SpaceX/Seattle
Mission
Operational Commercial Communications
Bus & Motor
STARLINK V2M, Unknown motor
Mass
730 kg wet, ~700 kg dry
Launch date (UTC)
2024-11-11 (2 years ago)
Launch vehicle
FALCON 9
Launch site
Air Force Eastern Test Range (AFETR)
Object type
Payload
Rocket body
Debris
Shape & HBR
Box + 2 Pan, 17.7 m
Radar Cross Section
33.884 m², Large (>1 m²)

Expand to show TLE details & history
Last TLE update: 11 hours ago

TLE from 11 hours ago
0 STARLINK-32559
1 61915U 24207D   26145.51123016  .00014144  00000-0  52236-3 0  9999
2 61915  42.9984 207.6613 0001595 268.5903  91.4766 15.27590382 86478
Epoch: 2026-05-25T12:16Z
TLE epoch observation values (Epoch: 2026-05-25T12:16:10.285Z)
Latitude
-0.00003°
Longitude
140.52044°
Altitude
482.822 km
Speed
7.626 km/s
True Right ascension
13h 50m 38s
True Declination
0° 00' 00"
Sunlit
Object was in full shadow at epoch
Visualization orbit readout
Latitude
Unknown
Longitude
Unknown
Altitude
Unknown
Speed
Unknown
Apparent Right ascension
Unknown
Apparent Declination
Unknown
Sunlit
N/A
Visualization observer readout
Local Sidereal Time
08:10:56
Azimuth
Unknown
Elevation
Unknown
Doppler factor
Unknown
Orbital elements
Apogee altitude
486.058 km
Perigee altitude
483.869 km
Semi-major axis
6,863.1 km
Eccentricity
0.00016
Inclination
42.9984°
RAAN
207.6613°
Arg. of periapsis
268.5903°
True anomaly
91.49487°
Mean anomaly
91.4766°
Eccentric anomaly
91.48574°
Mean motion
3.81736 °/min
Orbital period
94.31 mins
BSTAR
0.00052236
Loading maneuver chart data...
Computing Atmospheric mass density...
Loading historical data...
Loading historical data...
Loading historical data...
Loading historical data...
Loading historical data...
Loading historical data...
Loading historical data...

Documentation

Showing up to 5 results
|